Regional Weather Roundup
Issued by NWS Huntsville, AL

Current Version | Previous Version | Graphics & Text | Print | Product List | Glossary On
Versions: 1 2 3 4 5 6 7 8 9 10 11 12 13 14 15 16 17 18 19 20 21 22 23 24 25 26 27
000
ASUS44 KHUN 241110
RWRHUN

WEATHER ROUNDUP FOR THE TENNESSEE VALLEY
NATIONAL WEATHER SERVICE HUNTSVILLE AL
600 AM CDT THU JUN 24 2021

ALZ001>004-241200-
NORTHWEST ALABAMA

CITY           SKY/WX    TMP DP  RH WIND       PRES   REMARKS
SHOALS AIRPORT MOCLDY    65  60  84 E5        30.12R
$$

ALZ005>007-016-241200-
NORTH CENTRAL ALABAMA

CITY           SKY/WX    TMP DP  RH WIND       PRES   REMARKS
CULLMAN AG STN   N/A     59 N/A N/A CALM        N/A
DECATUR AP     CLEAR     62  60  93 CALM      30.14R
HUNTSVILLE AP  PTCLDY    65  61  87 E7        30.14R
HUN NWS/UAH      N/A     69  63  80 SE3         N/A
MERIDIANVILLE  CLEAR     62  61  97 CALM      30.15S
VINEMONT AP    FAIR      67  59  77 E5        30.17R
$$

ALZ008>010-241200-
NORTHEAST ALABAMA

CITY           SKY/WX    TMP DP  RH WIND       PRES   REMARKS
ALBERTVILLE    PTCLDY    66  61  82 SE3       30.16R
FORT PAYNE     PTCLDY    68  62  79 NE6       30.16S
SCOTTSBORO AP  PTCLDY    63  63 100 N3        30.16S
$$

TNZ076-096-097-241200-
SOUTHEASTERN MIDDLE TENNESSEE

CITY           SKY/WX    TMP DP  RH WIND       PRES   REMARKS
FAYETTEVILLE   CLEAR     64  61  88 CALM      30.17S
TULLAHOMA      CLEAR     64  61  88 CALM      30.16S
WINCHESTER     CLEAR     68  61  77 SE12      30.16S
$$

...SURROUNDING SITES...

CITY           SKY/WX    TMP DP  RH WIND       PRES   REMARKS
ATLANTA        CLOUDY    72  67  84 E10       30.20R
ANNISTON       CLEAR     70  63  78 NE6       30.15R
BIRMINGHAM     PTCLDY    71  61  70 N6        30.14R
CHATTANOOGA    MOCLDY    67  63  87 CALM      30.19R
CORINTH        PTCLDY    61  61 100 CALM      30.09S FOG
DALTON         CLEAR     64  63  94 CALM      30.21R
GADSDEN        PTCLDY    63  63 100 CALM      30.16R
GOLDEN TRNGL   CLEAR     69  69 100 E3        30.10R
HALEYVILLE     FAIR      61  60  97 CALM      30.15S
JACKSON TN     PTCLDY    61  58  90 CALM      30.09S
MEMPHIS        PTCLDY    70  63  78 S8        30.06S
NASHVILLE      CLEAR     63  57  81 CALM      30.14S
OXFORD MS      CLEAR     66  63  88 SE8       30.09S
ROME           CLOUDY    70  63  78 MISG      30.17S
SAVANNAH       CLEAR     63  61  94 CALM      30.09R
SELMER         CLEAR     63  59  88 CALM      30.10R
TUPELO         PTCLDY    68  63  84 CALM      30.09S
TUSCALOOSA     CLEAR     69  68  96 CALM      30.10R
$$




USA.gov is the U.S. government's official web portal to all federal, state and local government web resources and services.